sat.trackr.live / text

‹ back to catalog

WORLDVIEW-2 (WV-2)

NORAD 35946 · 2009-055A

PAYLOAD ACTIVE UNKNOWN

§ Identity

Operator
Country
US
Launch date
2009-10-08
Launch site
AFWTR
Launch vehicle
Mass (kg)
RCS (m²)
7.03

Purposes: earth_obs

External: N2YO · Heavens-Above · Gunter

§ Orbital elements

Epoch: 2026-09-20T03:33:04.354848Z

Period
100.14 min
Inclination
98.4714°
Eccentricity
0.0003313
Mean motion
14.37921106 rev/d
Perigee alt
763.0 km
Apogee alt
767.7 km
Semi-major
7,143.5 km
B*
3.0250e-5
RAAN
335.2906°
Arg perigee
308.6126°
Mean anomaly
51.4764°
Rev number
88,929

§ Raw data

WORLDVIEW-2 (WV-2)1 35946U 09055A   26263.14796707  .00000048  00000+0  30250-4 0  99912 35946  98.4714 335.2906 0003313 308.6126  51.4764 14.37921106889293

JSON: /api/v1/satellites/35946 · /tle

For live sub-satellite position, see the globe view (requires WebGL).

§ Visibility from observer

Set your observer location to see the next 7 days of passes ≥ 10°. The values pass through the URL so the page stays shareable.

No JS? Fill the form by hand. The geolocation button needs JavaScript.